Location: Makanda
(37.6176°N, 89.2090°W)
Time: 00:50:32
(UTC+00:00)

FengYun 1-2 T - Pass Details

Date: 23 September 2019
Orbit: 846 x 881 km, 98.7° (Epoch: 14 October)

Event Time Altitude Azimuth Distance (km) Brightness Sun altitude
Rises 00:15:56 0° 165° (SSE) 3,450 7.2 -5.2°
Reaches altitude 10° 00:18:18 10° 165° (SSE) 2,520 6.5 -5.6°
Maximum altitude 00:23:56 90° 86° (E) 885 4.4 -6.7°
Drops below altitude 10° 00:29:38 10° 347° (NNW) 2,546 7.0 -7.9°
Sets 00:32:02 0° 347° (NNW) 3,488 7.7 -8.3°
